Location: Moscow
(55.7500°N, 37.5830°E)
Time: 16:48:19
(UTC+03:00)

Transit 2A - Pass Details

Date: 03 December 2021
Orbit: 591 x 967 km, 66.7° (Epoch: 17 January)

Event Time Altitude Azimuth Distance (km) Brightness Sun altitude
Rises 09:12:11 0° 316° (NW) 3,647 8.8 2.6°
Reaches altitude 10° 09:14:47 10° 313° (NW) 2,712 8.2 2.8°
Maximum altitude 09:21:04 60° 236° (SW) 1,100 6.9 3.4°
Drops below altitude 10° 09:27:11 10° 158° (SSE) 2,642 10.5 4.0°
Sets 09:29:41 0° 155° (SSE) 3,546 11.4 4.2°
